Effective Sunday, March 17, 2024, the National Weather Service National Data Buoy Center will discontinue its Dial-A-Buoy Interactive Voice Response system. For more information, see Service Change Notice 24-06 (PDF).

Station LJAC1 - 9410230 - La Jolla, CA Image indicating link to RSS feed of recent meteorological observations for station LJAC1


Conditions at LJAC1 as of
(7:00 pm PST on 02/23/2024)
0300 GMT on 02/24/2024:
     

Click on the graph icon in the table below to see a time series plot of the last five days of that observation.

5-day plot - Wind Direction Wind Direction (WDIR): SE ( 140 deg true )
5-day plot - Wind Speed Wind Speed (WSPD): 1.0 kts
5-day plot - Wind Gust Wind Gust (GST): 1.9 kts
5-day plot - Atmospheric Pressure Atmospheric Pressure (PRES):30.01 in
5-day plot - Pressure Tendency Pressure Tendency (PTDY):+0.04 in ( Rising )
5-day plot - Air Temperature Air Temperature (ATMP): 63.0 °F
5-day plot - Water Temperature Water Temperature (WTMP): 61.0 °F
5-day plot - Wind Speed at 10 Meters Wind Speed at 10 meters (WSPD10M): 1.9 kts
5-day plot - Wind Speed at 20 Meters Wind Speed at 20 meters (WSPD20M): 1.9 kts
5-day plot -  Wind Speed, Wind Gust and Atmospheric Pressure Combined plot of Wind Speed, Gust, and Air Pressure
NOS Water Level Observation Network Water Level
Previous observations
TIME
(PST)
5-day plot - Wind Direction
WDIR
 
5-day plot - Wind Speed
WSPD
kts
5-day plot - Wind Gust
GST
kts
5-day plot - Wave Height
WVHT
ft
5-day plot - Dominant Wave Period
DPD
sec
5-day plot - Average Wave Period
APD
sec
5-day plot - Mean Wave Direction
MWD
 
5-day plot - Atmospheric Pressure
PRES
in
5-day plot - Pressure Tendency
PTDY
in
5-day plot - Air Temperature
ATMP
°F
5-day plot - Water Temperature
WTMP
°F
5-day plot - Dew Point
DEWP
°F
5-day plot - Salinity
SAL
psu
5-day plot - Visibility
VIS
nmi
5-day plot - Tide (above MLLW)
TIDE
ft
2024-02-23 06:54 pm NE 1.9 1.9----30.01- 62.8 61.0----
2024-02-23 06:48 pm- 0.0 1.9----30.01- 62.6 61.0----
2024-02-23 06:42 pmNNE 1.9 1.9----30.00- 62.8 61.0----
2024-02-23 06:36 pmENE 1.0 1.9----30.00- 62.6 60.8----
2024-02-23 06:30 pm NE 1.0 1.0----30.00- 62.6 61.0----
2024-02-23 06:24 pm- 0.0 1.9----30.00- 62.6 61.2----
2024-02-23 06:18 pm S 1.9 4.1----30.00- 63.3 61.2----
2024-02-23 06:12 pmSSE 4.1 4.1----30.00- 64.8 61.2----
2024-02-23 06:06 pmSSE 2.9 4.1----29.99- 64.6 61.0----
2024-02-23 06:00 pmSSE 2.9 2.9----29.99+0.02 64.4 61.0----
2024-02-23 05:54 pmSSE 2.9 4.1----29.99- 63.7 61.2----
2024-02-23 05:48 pm SE 1.9 2.9----29.99- 63.3 60.6----
2024-02-23 05:42 pmSSE 1.9 2.9----29.99- 62.4 60.6----
2024-02-23 05:36 pm SE 2.9 2.9----29.98- 61.5 61.0----
2024-02-23 05:30 pmSSE 2.9 2.9----29.98-------
2024-02-23 05:24 pm S 2.9 2.9----29.98-------
2024-02-23 05:18 pm S 1.9 4.1----29.98-- 60.1----
2024-02-23 05:12 pm S 2.9 4.1----29.98-- 60.3----
2024-02-23 05:06 pm S 4.1 4.1----29.98-- 60.3----
2024-02-23 05:00 pm S 2.9 2.9----29.98+0.01- 60.3----
2024-02-23 04:54 pm S 1.0 1.0----29.98-- 60.3----
2024-02-23 04:48 pmSSW 1.0 1.0----29.98-- 60.1----
2024-02-23 04:42 pm- 0.0 1.9----29.98-- 59.7----
2024-02-23 04:36 pm SW 1.9 4.1----29.98-- 59.5----
2024-02-23 04:30 pmSSW 2.9 4.1----29.98-- 59.5----
2024-02-23 04:24 pm SW 1.0 1.9----29.98-- 59.5----
2024-02-23 04:18 pm- 0.0 1.9----29.97-- 59.7----
2024-02-23 04:12 pmWNW 1.0 1.9----29.98-- 59.7----
2024-02-23 04:06 pm NW 1.9 2.9----29.97-- 59.7----
2024-02-23 04:00 pmNNW 2.9 2.9----29.97-0.01------
2024-02-23 03:54 pm NW 2.9 4.1----29.97-------
2024-02-23 03:48 pmNNW 4.1 5.1----29.97- 62.1 59.7----
2024-02-23 03:42 pmNNW 5.1 6.0----29.97- 61.7 59.9----
2024-02-23 03:36 pm N 6.0 8.0----29.97- 61.7 59.9----
2024-02-23 03:30 pm N 7.0 8.9----29.96- 61.7 59.9----
2024-02-23 03:24 pm N 8.0 8.9----29.96- 61.3 60.3----
2024-02-23 03:18 pm N 6.0 8.0----29.96-- 60.3----
2024-02-23 03:12 pm N 7.0 8.9----29.96-- 59.7----
2024-02-23 03:06 pm N 8.0 8.9----29.96-- 59.5----
2024-02-23 03:00 pm N 8.0 8.9----29.97-0.06 61.5 59.5----
2024-02-23 02:54 pm N 8.0 8.9----29.97- 61.5 59.7----
2024-02-23 02:48 pm N 6.0 7.0----29.97- 61.7 59.5----
2024-02-23 02:42 pm N 6.0 6.0----29.97- 61.7 59.5----
2024-02-23 02:36 pm N 5.1 6.0----29.97- 62.1 59.5----
2024-02-23 02:30 pm N 5.1 6.0----29.97- 62.2 59.5----
2024-02-23 02:24 pm N 4.1 5.1----29.97- 62.4 59.7----
2024-02-23 02:18 pmNNW 4.1 6.0----29.97- 62.8 59.7----
2024-02-23 02:12 pm N 4.1 4.1----29.97- 63.0 59.7----
2024-02-23 02:06 pmNNW 2.9 4.1----29.97- 63.1 59.7----
2024-02-23 02:00 pm NW 2.9 2.9----29.97-0.08 63.7 59.7----
2024-02-23 01:54 pm N 2.9 4.1----29.97- 63.3 59.9----
2024-02-23 01:48 pmNNE 2.9 4.1----29.97- 63.1 59.9----
2024-02-23 01:42 pm N 4.1 5.1----29.97- 63.1 60.3----
2024-02-23 01:36 pmNNE 5.1 6.0----29.97- 62.8 60.1----
2024-02-23 01:30 pm N 5.1 5.1----29.98- 62.6 60.3----
2024-02-23 01:24 pm N 5.1 5.1----29.98- 61.9 60.6----
2024-02-23 01:18 pm N 5.1 5.1----29.97- 62.8 60.8----
2024-02-23 01:12 pm N 1.0 1.9----29.98- 64.9 60.8----
2024-02-23 01:06 pm NW 1.0 4.1----29.98- 64.2 60.8----
2024-02-23 01:00 pm N 4.1 5.1----29.98-0.08 61.7 60.8----
2024-02-23 12:54 pmNNE 1.9 2.9----29.97- 61.5 60.8----
2024-02-23 12:48 pm N 1.0 2.9----29.98- 61.7 60.8----
2024-02-23 12:42 pm N 2.9 2.9----29.99- 60.3 60.8----
2024-02-23 12:36 pm N 2.9 2.9----30.00- 61.2 60.8----
2024-02-23 12:30 pmNNE 4.1 4.1----30.01- 60.8 60.6----
2024-02-23 12:24 pm N 2.9 4.1----30.01- 61.5 60.6----
2024-02-23 12:18 pmNNW 2.9 2.9----30.02- 63.0 60.6----
2024-02-23 12:12 pm NW 1.9 2.9----30.03- 62.8 60.6----
2024-02-23 12:06 pmNNW 2.9 5.1----30.02- 61.3 60.6----
2024-02-23 12:00 pm N 5.1 6.0----30.03-0.04 60.4 60.4----
2024-02-23 11:54 am N 5.1 5.1----30.03- 60.8 60.4----
2024-02-23 11:48 am N 4.1 4.1----30.04- 60.6 60.4----
2024-02-23 11:42 am N 4.1 4.1----30.04- 60.6 60.4----
2024-02-23 11:36 am N 4.1 5.1----30.03- 60.6 60.4----
2024-02-23 11:30 am N 4.1 5.1----30.04- 60.6 60.4----
2024-02-23 11:24 am N 2.9 4.1----30.04- 60.4 60.4----
2024-02-23 11:18 am N 4.1 4.1----30.04-- 60.3----
2024-02-23 11:12 am N 2.9 5.1----30.04- 60.1 60.3----
2024-02-23 11:06 am N 5.1 6.0----30.05- 60.1 60.3----
2024-02-23 11:00 am N 4.1 5.1----30.05-0.01 60.1 60.1----
2024-02-23 10:54 am N 4.1 5.1----30.05- 60.1 59.9----
2024-02-23 10:48 am N 4.1 5.1----30.05- 60.4 59.9----
2024-02-23 10:42 am N 4.1 5.1----30.05- 60.6 59.9----
2024-02-23 10:36 am N 4.1 4.1----30.05- 61.0 60.1----
2024-02-23 10:30 am N 2.9 2.9----30.05- 61.3 60.1----
2024-02-23 10:24 amNNE 2.9 2.9----30.05- 61.5 60.3----
2024-02-23 10:18 amNNE 2.9 4.1----30.05- 62.1 60.4----
2024-02-23 10:12 am NW 1.9 2.9----30.06- 63.3 60.3----
2024-02-23 10:06 am W 1.9 1.9----30.06- 63.3 60.1----
2024-02-23 10:00 am W 1.0 1.9----30.06-0.02 64.0 59.9----
2024-02-23 09:54 am- 0.0 1.9----30.06- 64.2 59.9----
2024-02-23 09:48 amNNW 1.0 2.9----30.06- 61.9 59.9----
2024-02-23 09:42 amWSW 5.1 7.0----30.06- 60.4 59.7----
2024-02-23 09:36 am W 1.9 4.1----30.06- 61.2 59.7----
2024-02-23 09:30 am W 4.1 6.0----30.06- 60.6 59.7----
2024-02-23 09:24 amWSW 6.0 7.0----30.07- 61.0 59.7----
2024-02-23 09:18 amWNW 1.9 4.1----30.07- 63.0 59.9----
2024-02-23 09:12 am SW 4.1 4.1----30.07- 61.5 59.9----
2024-02-23 09:06 am SW 2.9 4.1----30.07- 62.1 60.1----
2024-02-23 09:00 amSSW 1.9 5.1----30.07+0.02 62.1 60.1----
2024-02-23 08:54 am SW 4.1 6.0----30.07- 61.3 60.1----
2024-02-23 08:48 amSSW 4.1 5.1----30.06- 60.6 60.1----
2024-02-23 08:42 amESE 5.1 8.0----30.06- 60.4 60.1----
2024-02-23 08:36 amESE 5.1 7.0----30.06- 58.3 60.1----
2024-02-23 08:30 am S 4.1 6.0----30.06- 57.0 60.1----
2024-02-23 08:24 am S 6.0 8.9----30.06- 56.7 60.1----
2024-02-23 08:18 am S 6.0 8.0----30.06- 56.3 60.1----
2024-02-23 08:12 amSSW 5.1 8.0----30.06- 56.1 60.1----
2024-02-23 08:06 amWNW 1.0 4.1----30.06- 57.2 60.1----
2024-02-23 08:00 amNNE 1.9 5.1----30.06+0.00 57.0 60.1----
2024-02-23 07:54 amENE 2.9 5.1----30.06- 56.8 60.1----
2024-02-23 07:48 amESE 2.9 4.1----30.07- 56.7 60.1----
2024-02-23 07:42 am SE 4.1 5.1----30.07- 56.5 59.9----
2024-02-23 07:36 am SE 1.9 5.1----30.07- 57.0 60.1----
2024-02-23 07:30 am NE 5.1 6.0----30.06- 56.7 60.1----
2024-02-23 07:24 amENE 2.9 4.1----30.07- 56.5 60.1----
2024-02-23 07:18 amESE 1.9 2.9----30.07- 56.3 60.1----
2024-02-23 07:12 amSSE 1.0 1.9----30.08- 55.9 59.9----
2024-02-23 07:06 amSSE 1.9 4.1----30.08- 55.4 59.7----
2024-02-23 07:00 am S 2.9 4.1----30.08+0.03 55.4 59.9----
2024-02-23 06:54 amESE 1.0 1.0----30.08- 55.0 59.7----
2024-02-23 06:48 am- 0.0 1.9----30.08- 54.9 59.7----
2024-02-23 06:42 am SE 1.9 1.9----30.08- 54.9 59.9----
2024-02-23 06:36 am S 1.0 1.9----30.07- 54.7 59.9----
2024-02-23 06:30 am SE 1.0 1.9----30.07- 54.7 60.1----
2024-02-23 06:24 amSSE 1.0 1.9----30.06- 54.7 60.1----
2024-02-23 06:18 am- 0.0 1.0----30.06- 54.9 60.3----
2024-02-23 06:12 am- 0.0 1.9----30.06- 54.9 60.1----
2024-02-23 06:06 amESE 1.0 1.9----30.05- 54.9 60.1----
2024-02-23 06:00 am- 0.0 1.0----30.05-0.01 54.7 60.1----
2024-02-23 05:54 am- 0.0 1.0----30.05- 54.7 59.9----
2024-02-23 05:48 am- 0.0 1.9----30.05- 54.7 59.7----
2024-02-23 05:42 am- 0.0 1.9----30.05- 54.9 59.5----
2024-02-23 05:36 am- 0.0 0.0----30.04- 54.7 59.5----
2024-02-23 05:30 am- 0.0 1.9----30.05- 54.9 59.5----
2024-02-23 05:24 am E 1.9 1.9----30.05- 54.9 59.7----
2024-02-23 05:18 am E 1.0 2.9----30.05- 54.9 59.7----
2024-02-23 05:12 am E 1.9 5.1----30.05- 55.0 59.7----
2024-02-23 05:06 am E 4.1 5.1----30.06- 54.9 59.7----
2024-02-23 05:00 am E 4.1 5.1----30.05-0.03 54.5 59.7----
2024-02-23 04:54 amESE 2.9 5.1----30.05- 54.5 59.7----
2024-02-23 04:48 am E 5.1 6.0----30.05- 54.5 59.7----
2024-02-23 04:42 am E 4.1 5.1----30.05- 54.1 59.7----
2024-02-23 04:36 am E 4.1 7.0----30.05- 54.3 59.7----
2024-02-23 04:30 am E 6.0 6.0----30.05- 54.3 59.7----
2024-02-23 04:24 am E 2.9 4.1----30.05- 54.9 59.9----
2024-02-23 04:18 am E 2.9 2.9----30.05- 54.7 59.9----
2024-02-23 04:12 am E 2.9 4.1----30.05- 54.7 59.9----
2024-02-23 04:06 amESE 1.9 1.9----30.05- 55.0 59.9----
2024-02-23 04:00 am E 1.0 1.0----30.05-0.04 55.0 59.9----
2024-02-23 03:54 am- 0.0 1.9----30.05- 55.0 59.9----
2024-02-23 03:48 am- 0.0 1.0----30.05- 55.2 60.1----
2024-02-23 03:42 am SE 1.0 1.0----30.05- 55.2 60.1----
2024-02-23 03:36 am- 0.0 1.9----30.05- 55.0 60.3----
2024-02-23 03:30 am E 1.9 1.9----30.05- 55.2 60.3----
2024-02-23 03:24 am- 0.0 1.0----30.06- 55.2 60.3----
2024-02-23 03:18 am- 0.0 1.0----30.06- 55.4 60.3----
2024-02-23 03:12 am E 1.9 1.9----30.06- 55.6 60.3----
2024-02-23 03:06 am- 0.0 1.0----30.06- 55.8 60.1----
2024-02-23 03:00 am E 1.9 1.9----30.06-0.05 55.8 60.1----
2024-02-23 02:54 amESE 1.0 1.9----30.07- 55.6 60.1----
2024-02-23 02:48 amESE 1.0 1.9----30.07- 55.6 60.1----
2024-02-23 02:42 amESE 1.0 1.0----30.07- 55.4 60.1----
2024-02-23 02:36 am- 0.0 1.0----30.07- 55.6 60.3----
2024-02-23 02:30 am- 0.0 1.0----30.07- 55.4 60.3----
2024-02-23 02:24 am- 0.0 0.0----30.07- 55.6 60.3----
2024-02-23 02:18 am- 0.0 1.0----30.07- 55.6 60.4----
2024-02-23 02:12 am- 0.0 1.0----30.08- 55.6 60.4----
2024-02-23 02:06 am- 0.0 1.0----30.08- 55.6 60.4----
2024-02-23 02:00 am- 0.0 1.0----30.08-0.06 55.6 60.4----
2024-02-23 01:54 am- 0.0 1.0----30.08- 55.6 60.4----
2024-02-23 01:48 am- 0.0 0.0----30.08- 55.6 60.4----
2024-02-23 01:42 am- 0.0 0.0----30.08- 55.6 60.4----
2024-02-23 01:36 am- 0.0 1.0----30.09- 55.9 60.4----
2024-02-23 01:30 am- 0.0 1.0----30.09- 55.9 60.6----
2024-02-23 01:24 am S 1.0 1.0----30.09- 56.1 60.6----
2024-02-23 01:18 am- 0.0 1.0----30.09- 56.1 60.6----
2024-02-23 01:12 am S 1.0 1.0----30.09- 56.5 60.6----
2024-02-23 01:06 am- 0.0 1.0----30.09- 56.7 60.6----
2024-02-23 01:00 am- 0.0 1.0----30.09-0.07 56.7 60.8----
2024-02-23 12:54 am- 0.0 1.0----30.09- 56.7 60.8----
2024-02-23 12:48 am E 1.0 1.9----30.09- 56.7 60.8----
2024-02-23 12:42 am E 1.0 1.9----30.10- 56.8 60.8----
2024-02-23 12:36 am E 1.0 1.9----30.10- 56.8 60.8----
2024-02-23 12:30 am- 0.0 2.9----30.10- 57.2 60.8----
2024-02-23 12:24 am E 2.9 2.9----30.10- 57.2 60.8----
2024-02-23 12:18 am NE 1.9 4.1----30.10- 57.4 60.8----
2024-02-23 12:12 amENE 2.9 4.1----30.11- 57.4 60.8----
2024-02-23 12:06 amENE 4.1 6.0----30.11- 57.6 60.8----
2024-02-23 12:00 amENE 5.1 6.0----30.11-0.05 57.4 60.8----
2024-02-22 11:54 pm E 4.1 5.1----30.12- 57.4 60.8----
2024-02-22 11:48 pm E 2.9 4.1----30.12- 57.6 60.8----
2024-02-22 11:42 pmENE 2.9 4.1----30.13- 57.7 60.8----
2024-02-22 11:36 pm NE 4.1 5.1----30.13- 57.7 60.8----
2024-02-22 11:30 pm NE 5.1 6.0----30.13- 57.7 60.8----
2024-02-22 11:24 pm NE 5.1 6.0----30.14- 57.9 60.8----
2024-02-22 11:18 pmNNE 5.1 6.0----30.14- 58.1 60.8----
2024-02-22 11:12 pmNNE 5.1 6.0----30.14- 58.1 60.8----
2024-02-22 11:06 pmNNE 5.1 6.0----30.14- 58.1 60.8----
2024-02-22 11:00 pmNNE 6.0 7.0----30.14-0.01 58.1 60.8----
2024-02-22 10:54 pmNNE 5.1 6.0----30.14- 58.1 60.8----
2024-02-22 10:48 pmNNE 5.1 6.0----30.14-- 60.8----
2024-02-22 10:42 pmNNE 5.1 6.0----30.15- 58.5 60.8----
2024-02-22 10:36 pmNNE 5.1 6.0----30.15- 58.5 60.8----
2024-02-22 10:30 pmNNE 5.1 6.0----30.15- 58.5 60.8----
2024-02-22 10:24 pmNNE 5.1 7.0----30.15- 58.5 60.8----
2024-02-22 10:18 pmNNE 5.1 6.0----30.15- 58.5 60.8----
2024-02-22 10:12 pm N 5.1 6.0----30.15- 58.5 60.8----
2024-02-22 10:06 pm N 5.1 5.1----30.16- 58.6 60.8----
2024-02-22 10:00 pmNNE 4.1 5.1----30.16+0.02 58.5 60.8----
2024-02-22 09:54 pmNNE 2.9 5.1----30.16- 58.6 60.8----
2024-02-22 09:48 pmNNW 4.1 5.1----30.16-- 60.8----
2024-02-22 09:42 pmNNW 4.1 5.1----30.16- 58.6 60.8----
2024-02-22 09:36 pmNNW 4.1 5.1----30.16- 58.8 60.8----
2024-02-22 09:30 pm NW 5.1 5.1----30.16- 58.8 60.8----
2024-02-22 09:24 pmNNW 5.1 5.1----30.16- 59.0 60.8----
2024-02-22 09:18 pmNNW 4.1 5.1----30.16- 58.8 60.8----
2024-02-22 09:12 pmNNW 5.1 6.0----30.16- 58.8 60.8----
2024-02-22 09:06 pmNNW 5.1 6.0----30.16- 58.8 60.8----
2024-02-22 09:00 pmNNW 5.1 6.0----30.16+0.05 58.8 60.8----
2024-02-22 08:54 pmNNW 5.1 6.0----30.17- 58.8 60.8----
2024-02-22 08:48 pmNNW 4.1 5.1----30.17- 59.0 60.8----
2024-02-22 08:42 pmNNW 5.1 5.1----30.16- 58.8 60.8----
2024-02-22 08:36 pmNNW 5.1 6.0----30.16- 58.6 60.8----
2024-02-22 08:30 pmNNW 5.1 5.1----30.15- 58.6 60.8----
2024-02-22 08:24 pmNNW 4.1 5.1----30.15- 58.8 60.8----
2024-02-22 08:18 pmNNW 4.1 5.1----30.15- 58.6 60.8----
2024-02-22 08:12 pmNNW 5.1 5.1----30.15- 58.6 60.8----
2024-02-22 08:06 pm NW 4.1 5.1----30.15- 58.6 61.0----
2024-02-22 08:00 pmNNW 2.9 4.1----30.15+0.03 58.6 61.0----
2024-02-22 07:54 pm NW 2.9 4.1----30.15- 58.5 61.0----
2024-02-22 07:48 pmNNW 4.1 5.1----30.15- 58.5 61.0----
2024-02-22 07:42 pm NW 4.1 4.1----30.15- 58.5 61.0----
2024-02-22 07:36 pm N 1.0 1.9----30.16- 58.3 61.0----
2024-02-22 07:30 pmNNE 1.9 1.9----30.15- 58.1 61.0----
2024-02-22 07:24 pm NE 1.9 4.1----30.15- 58.1 60.8----
2024-02-22 07:18 pmNNE 2.9 2.9----30.15-------
2024-02-22 07:12 pmNNE 2.9 4.1----30.15- 58.3 60.8----
2024-02-22 07:06 pmNNE 4.1 4.1----30.14- 58.3 60.8----
2024-02-22 07:00 pmNNE 4.1 5.1----30.14+0.02 58.5 60.8----
2024-02-22 06:54 pmNNE 2.9 6.0----30.14- 58.6 61.0----